CAPE
0 0 0 0 0 0 0 0 0 0 0 0 0 0 0 0 0 5 10 18 0 438 300 535 218 553 779 1356 1205 883 522 313 282 459 475 388 598 738 651 358 271 368 190 43 0 0 0 0 0
0 0 0 0 0 0 0 0 0 0 0 0 0 0 0 0 0 0 0 65 0 756 575 300 448 432 790 1424 1342 1038 803 711 506 575 505 505 730 599 457 180 159 161 66 0 0 0 0 0 0
0 0 0 0 0 0 0 0 0 0 0 0 0 0 0 0 0 0 0 126 18 535 747 369 594 291 664 1535 1596 1133 997 915 681 717 596 591 632 424 307 126 69 66 28 0 0 0 0 0 0
0 0 0 0 0 0 0 0 0 0 0 0 0 0 0 0 0 0 42 195 161 296 731 857 554 309 570 1202 1646 1349 1218 1063 979 914 750 590 451 371 189 39 24 17 0 0 0 0 0 0 0
0 0 0 0 0 0 0 0 0 0 0 0 0 0 0 0 0 0 180 261 237 171 677 1163 471 544 474 993 1485 1542 1348 1231 1245 1000 834 483 312 211 54 0 0 0 0 0 0 0 0 0 0
0 0 0 0 0 0 0 0 0 0 0 0 0 0 0 0 0 0 232 330 260 193 475 1631 514 707 521 764 1144 1387 1432 1334 1285 1114 856 403 188 61 0 0 0 0 0 0 0 0 0 0 0
0 1 0 0 0 2 0 0 0 0 0 0 0 0 0 0 0 0 208 270 174 221 324 1593 521 898 639 514 902 1107 1183 1211 1111 1057 773 367 156 5 0 0 0 0 0 0 0 0 0 0 0
0 0 0 0 0 1 1 0 0 0 0 0 0 0 0 0 0 0 70 219 274 201 250 980 365 625 560 590 513 745 954 933 803 696 572 344 124 32 1 0 0 0 0 0 0 0 0 0 0
0 0 0 0 9 9 6 0 0 0 0 2 0 0 0 0 0 0 0 256 209 185 187 547 350 417 323 226 656 507 518 603 579 462 453 208 20 60 92 0 2 0 0 0 0 0 0 0 0
0 0 0 0 16 29 23 13 0 0 0 0 0 0 0 0 0 0 0 94 197 225 179 337 467 406 299 124 387 344 282 245 242 144 243 114 19 83 16 7 4 1 0 0 0 0 0 0 0
0 0 0 0 14 21 26 15 12 4 0 0 2 0 0 0 0 0 0 0 209 223 170 186 610 730 396 160 335 303 203 213 269 220 288 214 74 119 115 108 87 65 22 0 0 0 0 0 0
0 0 0 0 0 11 3 36 7 5 0 0 0 0 0 0 0 0 0 0 15 110 162 109 491 765 857 222 263 371 134 282 249 325 499 649 290 410 513 131 206 246 46 33 0 22 21 1 0
0 0 0 0 0 0 0 0 0 0 0 0 0 0 0 0 0 0 0 0 0 26 181 137 361 1012 1181 1320 342 376 228 300 287 368 627 665 615 653 783 496 165 152 131 81 99 35 14 9 20
0 0 0 0 0 0 0 0 0 0 0 0 0 0 0 0 0 0 0 0 0 20 175 187 169 782 1397 1400 1335 888 721 432 498 440 670 1155 841 882 554 506 343 198 84 63 44 84 57 50 62
0 0 0 0 0 0 0 0 0 0 0 0 0 0 0 0 0 0 0 0 0 31 185 241 235 440 1269 1677 1509 1165 849 629 656 652 933 1300 1248 917 650 387 372 201 153 185 110 86 86 84 95
0 0 0 0 0 0 0 0 0 0 0 0 0 0 0 0 0 0 0 0 0 0 0 0 210 368 835 1287 1323 1119 880 811 683 630 623 887 1391 1053 907 360 274 156 134 124 170 142 128 122 250
0 0 0 0 0 0 0 0 0 0 0 0 0 0 0 0 0 0 0 0 0 0 0 46 163 493 899 870 1217 1100 836 581 503 433 482 873 1070 1196 936 588 206 309 97 122 166 196 255 321 399
0 0 0 0 0 0 0 0 0 0 0 0 0 0 0 0 0 0 0 0 0 0 0 0 161 1068 787 1235 1251 717 678 463 417 324 233 452 827 924 935 129 302 360 156 82 85 264 422 430 710
0 0 0 0 0 0 0 0 0 0 0 0 0 0 0 0 0 0 0 0 0 0 0 0 0 220 1049 284 797 768 624 498 511 395 147 402 474 578 485 442 409 385 239 38 501 348 221 730 1194
0 0 0 0 0 0 0 0 0 0 0 0 0 0 0 0 0 0 0 0 0 0 0 0 0 5 114 1597 479 541 482 447 599 527 340 336 399 610 621 476 210 303 205 416 714 260 488 1063 1410
0 0 0 0 0 0 0 0 0 0 0 0 0 0 0 0 0 0 0 0 0 0 0 0 0 0 0 1 561 1798 1130 336 234 423 328 357 561 562 513 568 286 501 579 748 956 492 881 391 1154
0 0 0 0 0 0 0 0 0 0 0 0 0 0 0 0 0 0 0 0 0 0 0 0 0 0 0 0 0 44 1543 1096 1090 1260 1138 770 476 586 407 364 429 176 485 830 830 1323 1220 1665 1362
0 0 0 0 0 0 0 0 0 0 0 0 0 0 0 0 0 0 0 0 0 0 0 0 0 0 0 0 11 0 16 132 1442 2179 2272 2261 1789 948 801 364 280 705 1195 1399 1417 1778 2537 2044 2232
0 0 0 0 0 0 0 0 0 0 0 0 0 0 0 0 0 0 0 0 0 0 0 0 0 0 0 0 0 1 25 78 98 205 804 2310 1435 1250 1243 1205 1000 854 1564 1773 2696 2275 2875 2626 2436
1 2 0 8 2 0 0 0 0 0 0 0 0 0 0 0 0 0 0 0 0 0 0 0 0 0 0 0 0 0 0 15 116 254 83 497 1683 2212 2403 2257 2010 2249 2746 2981 2729 2903 3021 3157 2621
1 6 8 29 5 0 0 0 0 0 0 0 0 0 0 0 0 0 0 0 0 0 0 0 0 0 0 0 0 0 0 0 0 4 105 49 157 699 2037 3259 2808 2811 2958 3295 2980 3045 3097 3030 2793
11 2 8 0 0 0 0 0 1 0 0 0 0 0 0 0 0 0 0 0 0 0 0 0 0 0 0 0 0 0 0 0 0 0 78 297 409 325 570 1927 3227 3027 3002 2966 3231 3202 3185 2801 2728
14 17 35 29 4 4 2 3 1 0 0 0 0 0 0 0 0 0 0 0 0 0 0 0 0 0 0 0 0 0 0 0 0 1 33 86 342 1012 775 1090 2011 2359 2473 3190 3442 3116 2946 2520 2227
14 9 7 29 23 11 3 0 0 0 0 0 0 0 0 0 0 0 0 0 0 0 0 0 0 0 0 0 0 0 0 0 0 0 0 41 355 716 1090 1353 1284 1619 2378 3221 3325 3022 2408 2299 2496
58 52 90 33 8 8 3 0 0 0 0 0 0 0 16 4 0 0 0 0 0 0 0 0 0 0 0 0 0 0 0 0 0 0 0 8 266 972 1474 1467 1339 1648 2516 3029 3122 2783 1893 2423 2536
CIN
-0 -0 -0 -0 -0 -0 -0 -0 -0 -0 -0 -0 -0 -0 -0 -0 -0 -35 -68 -143 -0 -190 -476 -528 -567 -476 -399 -256 -204 -194 -209 -213 -213 -172 -173 -187 -152 -127 -121 -165 -169 -137 -175 -229 -0 -0 -0 -0 -0
-0 -0 -0 -0 -0 -0 -0 -0 -0 -0 -0 -0 -0 -0 -0 -0 -0 -0 -0 -189 -0 -209 -430 -489 -523 -472 -376 -263 -227 -205 -180 -170 -180 -177 -186 -190 -143 -159 -162 -229 -236 -211 -233 -0 -0 -0 -0 -0 -0
-0 -0 -0 -0 -0 -0 -0 -0 -0 -0 -0 -0 -0 -0 -0 -0 -0 -0 -0 -206 -222 -217 -367 -427 -515 -494 -402 -216 -166 -216 -187 -176 -189 -187 -195 -191 -173 -200 -211 -290 -250 -257 -280 -0 -0 -0 -0 -0 -0
-0 -0 -0 -0 -0 -0 -0 -0 -0 -0 -0 -0 -0 -0 -0 -0 -0 -0 -187 -220 -196 -228 -299 -401 -537 -478 -421 -267 -162 -164 -158 -181 -186 -185 -194 -209 -208 -215 -264 -279 -310 -320 -0 -0 -0 -0 -0 -0 -0
-0 -0 -0 -0 -0 -0 -0 -0 -0 -0 -0 -0 -0 -0 -0 -0 -0 -0 -239 -193 -192 -213 -263 -366 -532 -469 -432 -303 -168 -127 -154 -172 -163 -186 -192 -244 -248 -265 -302 -0 -0 -0 -0 -0 -0 -0 -0 -0 -0
-0 -0 -0 -0 -0 -0 -0 -0 -0 -0 -0 -0 -0 -0 -0 -0 -0 -0 -242 -178 -153 -186 -253 -294 -515 -471 -425 -350 -244 -144 -123 -153 -157 -165 -188 -249 -291 -317 -0 -0 -0 -0 -0 -0 -0 -0 -0 -0 -0
-0 -3 -0 -0 -0 -2 -0 -0 -0 -0 -0 -0 -0 -0 -0 -0 -0 -0 -200 -206 -193 -205 -242 -261 -459 -424 -422 -382 -270 -199 -162 -144 -153 -139 -180 -241 -277 -97 -0 -0 -0 -0 -0 -0 -0 -0 -0 -0 -0
-0 -0 -0 -0 -0 -6 -11 -0 -0 -0 -0 -0 -0 -0 -0 -0 -0 -0 -163 -200 -161 -182 -209 -215 -396 -397 -363 -361 -364 -275 -196 -186 -191 -189 -204 -239 -310 -358 -20 -0 -0 -0 -0 -0 -0 -0 -0 -0 -0
-0 -0 -0 -0 -8 -6 -6 -1 -0 -0 -0 -2 -0 -0 -0 -0 -0 -0 -0 -137 -140 -145 -187 -181 -278 -345 -336 -331 -325 -360 -296 -245 -235 -234 -229 -294 -328 -319 -319 -0 -55 -0 -0 -0 -0 -0 -0 -0 -0
-0 -0 -0 -0 -8 -12 -11 -8 -0 -0 -0 -0 -0 -0 -0 -0 -0 -0 -0 -132 -134 -106 -175 -161 -223 -256 -266 -272 -283 -339 -328 -320 -289 -308 -237 -311 -338 -249 -296 -283 -88 -50 -0 -0 -0 -0 -0 -0 -0
-0 -0 -0 -0 -7 -11 -14 -7 -7 -6 -0 -0 -1 -0 -0 -0 -0 -0 -0 -0 -120 -118 -121 -134 -157 -175 -212 -226 -237 -283 -299 -292 -259 -256 -208 -241 -256 -202 -234 -225 -312 -367 -469 -0 -0 -0 -0 -0 -0
-0 -0 -0 -0 -0 -10 -5 -6 -8 -8 -0 -0 -0 -0 -0 -0 -0 -0 -0 -0 -32 -183 -153 -117 -118 -134 -152 -176 -198 -185 -255 -245 -232 -218 -185 -142 -202 -166 -144 -189 -180 -239 -273 -342 -41 -322 -361 -39 -40
-0 -0 -0 -0 -0 -0 -0 -0 -0 -0 -0 -0 -0 -0 -0 -0 -0 -0 -0 -0 -0 -217 -149 -176 -127 -97 -90 -75 -142 -144 -179 -198 -192 -174 -170 -166 -160 -141 -140 -156 -174 -166 -188 -204 -235 -239 -256 -277 -316
-0 -0 -0 -0 -0 -0 -0 -0 -0 -0 -0 -0 -0 -0 -0 -0 -0 -0 -0 -0 -0 -137 -153 -131 -163 -131 -71 -79 -73 -146 -144 -178 -164 -170 -148 -146 -149 -133 -183 -173 -158 -171 -201 -181 -197 -226 -253 -298 -272
-0 -0 -0 -0 -0 -0 -0 -0 -0 -0 -0 -0 -0 -0 -0 -0 -0 -0 -0 -0 -0 -216 -130 -89 -52 -114 -80 -104 -76 -136 -153 -132 -155 -157 -143 -161 -178 -166 -207 -176 -177 -168 -201 -202 -209 -232 -278 -300 -274
-0 -0 -0 -0 -0 -0 -0 -0 -0 -0 -0 -0 -0 -0 -0 -0 -0 -0 -0 -0 -0 -0 -0 -0 -94 -81 -123 -70 -78 -116 -192 -185 -153 -149 -178 -191 -203 -207 -205 -170 -158 -189 -195 -197 -208 -237 -244 -256 -210
-0 -0 -0 -0 -0 -0 -0 -0 -0 -0 -0 -0 -0 -0 -0 -0 -0 -0 -0 -0 -0 -0 -0 -295 -75 -46 -121 -140 -94 -125 -166 -167 -181 -178 -195 -222 -226 -215 -205 -192 -188 -218 -204 -201 -232 -248 -187 -173 -173
-0 -0 -0 -0 -0 -0 -0 -0 -0 -0 -0 -0 -0 -0 -0 -0 -0 -0 -0 -0 -0 -0 -0 -0 -211 -42 -48 -91 -81 -112 -145 -155 -207 -216 -199 -235 -237 -255 -238 -264 -247 -272 -297 -309 -279 -218 -197 -221 -119
-0 -0 -0 -0 -0 -0 -0 -0 -0 -0 -0 -0 -0 -0 -0 -0 -0 -0 -0 -0 -0 -0 -0 -0 -0 -209 -68 -117 -99 -97 -111 -177 -211 -261 -291 -253 -272 -299 -286 -255 -245 -322 -347 -408 -236 -225 -247 -209 -119
-0 -0 -0 -0 -0 -0 -0 -0 -0 -0 -0 -0 -0 -0 -0 -0 -0 -0 -0 -0 -0 -0 -0 -0 -0 -234 -230 -9 -144 -204 -176 -199 -172 -212 -261 -290 -269 -262 -275 -318 -228 -329 -366 -274 -255 -186 -197 -164 -110
-0 -0 -0 -0 -0 -0 -0 -0 -0 -0 -0 -0 -0 -0 -0 -0 -0 -0 -0 -0 -0 -0 -0 -0 -0 -0 -0 -130 -141 -16 -79 -176 -107 -204 -223 -254 -274 -301 -268 -335 -308 -267 -303 -195 -225 -249 -206 -102 -76
-0 -0 -0 -0 -0 -0 -0 -0 -0 -0 -0 -0 -0 -0 -0 -0 -0 -0 -0 -0 -0 -0 -0 -0 -0 -0 -0 -0 -0 -112 -14 -42 -67 -65 -104 -199 -259 -270 -320 -315 -349 -230 -186 -164 -190 -141 -133 -155 -72
-0 -0 -0 -0 -0 -0 -0 -0 -0 -0 -0 -0 -0 -0 -0 -0 -0 -0 -0 -0 -0 -0 -0 -0 -0 -0 -0 -0 -286 -0 -170 -128 -8 -1 -3 -32 -86 -220 -235 -304 -277 -231 -180 -104 -104 -66 -123 -105 -110
-0 -0 -0 -0 -0 -0 -0 -0 -0 -0 -0 -0 -0 -0 -0 -0 -0 -0 -0 -0 -0 -0 -0 -0 -0 -0 -0 -0 -0 -224 -256 -227 -173 -141 -33 -12 -106 -142 -166 -285 -245 -228 -128 -86 -48 -94 -80 -138 -81
-5 -6 -1 -8 -13 -0 -4 -0 -0 -0 -0 -0 -0 -0 -0 -0 -0 -0 -0 -0 -0 -0 -0 -0 -0 -0 -0 -0 -0 -0 -0 -347 -243 -227 -242 -102 -6 -15 -50 -147 -118 -107 -16 -18 -66 -46 -68 -57 -116
-6 -12 -14 -5 -26 -3 -0 -0 -0 -0 -0 -0 -0 -0 -0 -0 -0 -0 -0 -0 -0 -0 -0 -0 -0 -0 -0 -0 -0 -0 -0 -0 -0 -40 -263 -275 -183 -60 -4 -29 -51 -23 -30 -28 -44 -41 -29 -43 -106
-6 -6 -9 -1 -0 -0 -5 -3 -3 -0 -0 -0 -0 -0 -0 -0 -0 -0 -0 -0 -0 -0 -0 -0 -0 -0 -0 -0 -0 -0 -0 -0 -0 -0 -323 -187 -169 -196 -117 -11 -21 -10 -11 -48 -47 -19 -16 -31 -83
-6 -5 -5 -6 -4 -10 -10 -9 -26 -0 -0 -0 -0 -0 -0 -0 -0 -0 -0 -0 -0 -0 -0 -0 -0 -0 -0 -0 -0 -0 -0 -0 -0 -152 -339 -318 -199 -105 -147 -92 -70 -73 -79 -9 -24 -39 -31 -79 -88
-23 -7 -5 -9 -9 -5 -8 -0 -0 -0 -0 -2 -0 -0 -0 -0 -0 -0 -0 -0 -0 -0 -0 -0 -0 -0 -0 -0 -0 -0 -0 -0 -0 -0 -0 -286 -165 -135 -107 -107 -122 -135 -84 -25 -24 -38 -73 -84 -49
-4 -6 -4 -4 -6 -6 -4 -0 -0 -0 -0 -0 -0 -1 -6 -6 -0 -0 -0 -0 -0 -0 -0 -0 -0 -0 -0 -0 -0 -0 -0 -0 -0 -0 -0 -54 -124 -75 -79 -96 -135 -102 -59 -37 -37 -71 -70 -16 -18
Wind_Speed
28 26 24 23 21 21 32 27 21 19 22 21 20 20 20 24 18 15 12 15 12 4 13 22 21 20 22 24 26 25 26 28 29 29 29 29 29 29 29 28 28 27 26 25 24 24 23 23 23
26 25 23 24 25 30 25 26 19 23 13 17 21 21 26 27 17 17 19 18 14 4 10 21 22 20 21 22 25 26 26 27 28 29 29 29 29 28 28 27 26 25 24 24 23 22 22 22 22
25 24 28 26 28 36 26 21 18 18 18 21 18 19 20 20 18 23 25 22 16 5 4 15 22 20 20 20 22 25 25 26 27 28 28 27 27 27 26 25 24 24 23 22 22 21 21 21 21
23 25 26 30 33 29 31 22 18 21 17 20 19 18 15 13 21 26 28 28 21 6 3 10 21 19 20 20 19 22 23 25 26 26 26 25 25 24 23 23 23 22 22 21 21 20 20 19 19
23 27 34 35 36 33 33 28 25 22 21 21 19 21 19 14 22 27 27 27 24 9 6 10 17 18 20 20 18 18 20 21 23 24 24 23 22 21 21 21 21 20 20 19 19 19 18 18 17
28 28 37 38 37 33 32 34 30 26 24 22 21 23 22 16 24 26 25 25 19 10 9 8 15 17 19 20 19 16 13 16 18 19 20 20 20 19 19 19 19 18 17 17 17 16 16 16 15
30 34 40 43 40 33 28 26 34 31 25 18 18 22 20 20 25 26 23 23 18 10 10 9 14 14 14 17 16 15 11 9 11 12 12 15 16 17 16 16 16 15 15 14 14 14 14 13 12
24 34 47 44 42 42 23 27 31 37 30 28 21 21 22 24 27 26 22 23 21 12 12 10 13 13 14 14 14 14 11 8 7 6 7 9 11 13 13 13 13 13 12 12 12 11 11 10 10
16 38 47 44 43 39 34 30 26 31 42 31 26 27 26 23 26 25 23 19 22 16 14 12 13 14 13 13 12 10 9 7 6 4 4 7 10 10 10 11 10 10 10 9 9 9 8 8 7
21 33 41 41 36 40 37 37 28 31 38 39 37 31 28 23 27 26 23 21 24 21 16 15 15 14 14 12 11 12 10 9 8 7 6 8 9 7 8 7 7 7 7 7 7 7 6 6 5
19 34 32 35 41 43 40 35 36 31 35 36 39 35 30 30 31 28 27 23 20 25 21 19 18 16 16 13 12 12 10 9 8 8 7 7 4 2 3 4 4 4 4 5 5 6 5 4 4
25 24 29 41 44 36 41 35 41 32 38 30 33 36 33 33 32 31 30 24 24 27 28 26 18 21 23 16 14 14 13 10 9 9 7 4 4 4 5 2 4 5 5 5 5 7 6 6 4
25 26 30 32 38 39 34 38 41 43 36 31 34 38 41 37 34 34 32 26 24 25 26 29 27 24 26 28 19 20 16 13 13 11 9 9 7 7 7 7 7 8 7 5 8 7 8 7 4
24 29 32 33 28 33 37 38 40 45 42 41 39 38 38 36 35 32 30 32 23 25 25 28 33 30 29 29 30 29 22 20 23 18 12 12 13 11 9 10 9 10 9 9 8 8 8 7 5
26 32 31 32 29 28 29 41 42 38 38 40 39 38 35 35 33 30 27 26 26 24 24 28 32 31 28 34 36 27 26 25 21 23 19 16 19 20 15 15 12 14 12 10 7 11 9 8 10
27 28 33 28 24 27 26 42 35 34 31 37 41 40 35 32 34 31 26 27 25 24 24 27 29 31 32 33 37 36 31 30 32 27 24 23 20 18 17 14 16 14 12 7 8 12 8 14 10
24 33 29 28 16 22 23 32 35 20 22 28 34 37 32 30 25 32 28 25 26 25 23 22 23 42 34 28 33 36 35 34 36 29 26 21 21 18 19 16 12 13 7 5 8 11 10 12 10
28 28 28 27 15 22 25 27 27 18 23 28 30 35 31 30 25 27 29 27 24 26 25 23 25 26 38 30 30 38 35 37 36 26 29 25 22 20 17 19 16 14 9 9 7 7 8 10 9
33 33 30 23 21 25 31 33 32 29 27 29 30 31 32 29 29 27 33 31 28 25 28 24 24 24 25 35 37 32 35 33 38 35 32 28 24 21 20 22 18 12 11 12 8 6 7 18 10
30 32 33 32 28 31 36 38 36 34 35 37 34 33 31 27 25 27 33 36 34 32 28 27 28 27 25 25 35 39 39 36 29 34 38 31 31 27 22 18 22 16 18 12 12 10 9 12 15
30 32 32 32 28 31 38 44 42 39 34 34 33 31 29 28 24 25 25 32 33 32 32 28 29 29 29 30 28 31 36 42 44 41 35 31 29 24 26 21 21 22 22 19 13 12 13 17 15
32 28 28 30 31 35 21 38 28 17 23 22 21 20 21 22 22 22 20 21 29 31 30 30 28 28 30 29 32 29 32 35 39 39 32 32 28 26 25 25 26 27 21 19 16 15 16 16 17
30 23 28 30 34 36 37 35 33 27 19 16 17 16 18 20 20 20 19 20 22 26 30 29 30 29 27 27 29 30 35 33 31 30 31 29 26 24 28 25 23 29 24 21 21 18 18 15 16
27 29 31 33 33 40 36 33 30 18 18 13 15 17 19 20 17 19 21 24 24 24 26 28 30 32 32 30 30 31 32 31 34 33 32 26 26 26 25 25 25 23 23 22 21 19 19 18 14
26 29 36 37 30 35 20 20 22 13 10 11 19 21 21 18 19 20 23 25 26 27 28 29 29 32 33 35 36 35 36 34 36 35 34 33 29 23 25 24 25 23 20 19 19 21 20 18 16
26 31 34 32 33 25 13 25 28 18 12 18 21 21 23 23 22 22 25 26 28 29 30 30 32 33 33 35 39 39 40 38 39 37 36 36 36 34 27 22 20 19 19 21 21 18 26 19 18
24 31 30 35 40 40 35 33 13 12 16 17 20 21 23 24 23 25 28 28 30 31 32 33 33 34 35 35 35 37 38 41 43 44 43 38 36 37 35 26 22 21 22 23 21 20 19 19 17
23 23 29 28 36 39 36 32 31 12 15 14 20 20 21 23 26 30 31 32 33 33 33 33 34 36 37 37 37 38 39 39 40 42 43 44 42 37 35 34 30 29 26 25 22 21 20 20 19
20 24 28 35 32 31 33 24 13 12 10 17 21 21 25 30 32 33 33 31 33 35 36 37 37 36 37 38 38 39 40 41 42 41 41 42 41 40 38 34 33 29 26 23 22 22 22 19 18
26 25 28 31 34 35 40 44 28 22 15 18 23 26 31 31 32 34 34 34 34 36 39 41 41 42 40 39 40 40 40 40 41 42 42 42 41 38 35 34 31 29 26 22 19 18 16 15 15
Wind_Direction
290 291 291 276 275 273 262 265 273 285 276 274 283 271 266 282 292 287 329 309 310 41 108 128 118 116 117 120 122 120 119 121 121 120 115 113 112 110 107 104 105 107 102 98 95 88 81 77 77
295 291 285 275 268 261 268 266 275 275 289 283 275 276 271 269 297 298 307 299 289 347 113 135 131 121 120 120 124 123 123 122 123 121 118 116 116 112 112 107 107 106 101 97 92 90 83 76 75
292 290 275 271 265 256 268 283 279 276 284 280 280 277 283 278 292 285 286 279 279 306 118 131 138 126 125 123 125 127 125 123 123 124 122 117 117 115 112 110 105 104 103 98 93 90 84 80 76
289 280 277 267 263 260 260 287 298 280 283 277 278 283 285 295 292 286 278 264 273 277 196 142 141 132 131 130 126 128 127 125 126 125 123 120 117 113 110 108 105 105 103 101 97 92 90 88 83
284 277 267 264 263 264 257 266 281 285 284 280 276 270 281 292 298 290 280 270 263 256 200 155 146 139 136 134 129 129 129 126 127 126 125 121 118 111 111 108 107 104 99 98 100 95 93 92 91
273 270 264 263 263 264 263 263 266 277 280 280 280 272 278 295 299 294 288 272 267 242 193 180 157 147 142 139 136 132 128 127 126 125 124 123 120 115 114 115 110 102 95 93 99 102 99 95 94
268 265 262 262 264 267 264 268 261 263 274 284 284 273 278 299 294 291 294 273 264 230 197 190 167 162 154 146 143 140 137 133 125 121 117 118 117 118 112 112 107 102 96 93 95 105 107 96 97
271 268 261 260 261 262 273 269 263 255 263 277 284 275 274 301 292 289 295 274 257 232 211 201 181 180 166 159 155 151 149 147 136 126 115 112 109 113 110 113 108 103 94 92 97 101 106 98 94
268 265 260 260 261 264 268 271 269 268 257 267 272 278 288 297 295 290 289 282 257 237 221 214 198 189 186 171 169 175 170 166 159 152 135 121 124 120 113 124 107 104 91 93 90 100 105 94 89
257 266 265 266 268 267 270 268 269 265 260 259 265 272 285 289 292 285 284 284 258 244 232 223 214 208 194 193 186 184 183 178 171 167 153 144 138 119 127 111 97 88 95 90 78 77 79 70 84
259 266 273 271 267 268 271 270 269 262 262 266 263 266 278 281 283 281 280 280 268 249 242 236 223 224 215 212 206 212 205 201 196 185 174 164 149 102 93 54 55 70 84 75 67 54 56 70 59
266 271 276 270 267 276 268 271 266 266 268 278 272 267 273 275 279 277 274 279 266 257 246 243 229 232 233 224 219 225 216 214 217 211 202 219 248 286 321 26 11 20 38 47 49 34 40 43 41
274 275 277 279 273 272 276 267 269 268 272 277 275 269 264 274 275 275 269 270 267 260 255 243 244 236 239 242 236 237 231 230 236 237 227 241 256 276 296 313 328 337 2 16 10 13 13 23 29
278 282 278 277 280 274 271 272 273 267 270 270 270 271 269 264 271 273 270 264 266 263 258 249 240 242 241 242 242 239 240 243 245 249 245 245 263 274 285 296 311 318 329 342 352 4 3 13 13
284 282 282 276 276 277 279 272 269 276 272 269 266 269 276 260 265 269 268 267 267 268 262 256 240 242 246 243 243 246 245 246 248 252 255 254 260 272 281 291 303 307 317 329 351 347 356 358 351
285 282 279 281 273 274 275 273 278 279 265 268 266 267 272 265 260 264 264 262 266 269 272 263 251 245 245 246 244 244 246 248 251 253 256 257 261 267 276 288 295 302 311 329 336 337 353 336 343
279 278 278 285 279 279 272 279 282 279 277 277 272 265 268 269 263 258 259 262 267 269 272 274 261 247 246 251 248 249 247 253 251 256 257 255 262 267 271 282 295 295 292 290 307 329 336 342 339
281 276 278 278 281 282 276 279 279 283 281 280 275 267 265 266 268 258 258 262 269 267 272 276 274 267 245 248 253 250 252 253 253 258 258 256 262 264 265 273 282 287 294 299 314 319 330 327 334
282 278 280 286 280 285 281 280 278 281 279 278 277 271 268 266 266 265 260 262 264 273 266 270 275 275 267 253 249 251 252 257 257 261 259 261 261 259 264 275 276 276 281 287 294 306 318 318 322
281 278 276 280 283 283 281 279 279 278 277 273 275 270 269 269 269 273 262 260 262 267 274 270 269 272 271 265 255 254 254 256 262 266 261 264 265 265 263 257 273 271 281 262 265 276 302 320 320
280 278 278 279 285 287 285 278 279 275 276 275 273 272 270 270 272 276 275 262 263 264 267 274 270 269 268 270 269 264 263 255 261 266 269 263 267 262 271 266 273 280 286 282 268 271 283 307 309
280 288 279 281 282 281 298 280 293 283 280 276 276 275 273 273 273 278 276 276 266 265 270 273 276 275 273 271 271 270 267 260 257 259 266 267 261 256 262 264 271 277 267 253 268 277 285 302 304
282 298 283 283 281 281 279 279 282 279 270 274 278 279 280 279 278 278 280 283 286 275 272 274 272 274 278 274 272 271 266 266 268 268 266 266 265 254 262 262 255 267 259 256 269 277 280 291 297
287 287 284 281 281 274 279 274 279 274 270 265 281 287 288 284 285 284 286 286 286 287 283 279 277 273 275 276 275 272 271 272 271 271 274 268 270 267 260 263 268 269 264 248 268 270 280 287 289
286 280 277 274 271 276 284 274 268 303 280 285 287 291 291 287 284 287 288 289 289 289 286 285 286 282 276 275 274 274 272 272 273 272 273 274 278 272 271 273 270 261 244 256 265 276 276 279 286
278 279 274 274 270 282 288 281 281 279 275 292 292 292 293 287 288 291 294 292 291 291 291 287 285 285 285 280 273 273 273 272 271 272 273 274 273 277 284 264 262 258 258 264 273 275 283 279 284
283 272 284 278 274 273 274 284 296 279 286 291 293 294 296 292 290 292 294 296 296 293 291 289 287 285 285 283 283 278 277 272 269 270 271 274 275 274 275 279 269 262 265 272 274 279 279 279 283
284 286 279 276 272 269 273 279 281 251 270 285 295 298 302 300 297 294 295 294 294 294 295 293 289 286 284 283 284 281 279 277 272 271 271 270 273 276 274 274 272 271 272 273 271 274 275 279 282
284 279 275 273 273 278 272 281 305 299 300 299 300 302 303 301 299 299 298 299 297 294 293 291 291 289 286 283 282 282 282 278 274 272 271 271 271 272 273 273 272 269 268 269 269 274 276 273 275
287 284 279 274 267 272 268 263 281 290 302 309 302 301 301 304 301 303 304 304 303 301 296 292 289 287 286 285 283 281 281 280 276 272 270 270 270 271 272 272 270 267 268 265 263 267 267 268 273